Regional Weather Roundup
Issued by NWS

Home | Current Version | Previous Version | Text Only | Print | Product List | Glossary On
Versions: 1 2 3 4 5 6 7 8 9 10 11 12 13 14 15 16 17 18 19 20 21 22 23 24 25 26 27 28 29 30 31 32 33 34 35 36 37 38 39 40 41 42 43 44 45 46 47 48 49 50
000
ASUS45 KABQ 222110
RWRNM
NEW MEXICO REGIONAL WEATHER ROUNDUP
NATIONAL WEATHER SERVICE ALBUQUERQUE NM
300 PM MDT TUE AUG 22 2017

NOTE: "FAIR" MEANS FEW OR NO CLOUDS BELOW 12,000 FEET AGL WITH NO
       SIGNIFICANT WEATHER OR OBSTRUCTIONS TO VISION.

      THIS PRODUCT IS RELEASED AS TWO VERSIONS.  ONE VERSION NEAR
      THE TOP OF THE HOUR CONTAINING PRELIMINARY DATA FROM ALBUQUERQUE
      AND OTHER STATIONS.  A FINAL VERSION WITH ADDITIONAL DATA IS
      ISSUED ABOUT 10 MINUTES AFTER THE HOUR.

NMZ501-503-504-510>518-222200-
NORTHWEST PLATEAU/NORTHCENTRAL MOUNTAINS

CITY           SKY/WX    TMP DP  RH WIND       PRES   REMARKS
FARMINGTON     FAIR      82  48  30 CALM      30.24F
LOS ALAMOS     PTSUNNY   75  44  32 SW3       30.40F
SANTA FE       FAIR      81  49  32 SW6       30.32F
TAOS           FAIR      74  52  46 SE16G23   30.42F
ANGEL FIRE     LGT RAIN  65  52  64 E13       30.51F

$$
NMZ402-403-502-505>509-222200-
WESTCENTRAL MOUNTAINS/SOUTHWEST MOUNTAINS

CITY           SKY/WX    TMP DP  RH WIND       PRES   REMARKS
GALLUP         PTSUNNY   85  44  23 SW12      30.31F
GRANTS         FAIR      80  43  27 W6        30.34F
SILVER CITY    PTSUNNY   87  48  26 SE3       30.24F

$$
NMZ407-409-411-412-222200-
SOUTHERN DESERTS

CITY           SKY/WX    TMP DP  RH WIND       PRES   REMARKS
DEMING         FAIR      91  57  31 S9        30.17F
LAS CRUCES     FAIR      89  55  30 CALM      30.19F
HOLLOMAN AFB   FAIR      92  58  31 SW6       30.17F
ALAMOGORDO     FAIR      90  57  33 SW6       30.17F
T OR C         FAIR      91  46  21 VRB5      30.18F

$$
NMZ519>523-222200-
CENTRAL VALLEYS/CENTRAL HIGHLANDS

CITY           SKY/WX    TMP DP  RH WIND       PRES   REMARKS
ALBUQUERQUE    FAIR      85  52  32 VRB5      30.25F
DOUBLE EAGLE   MOSUNNY   82  52  34 NW3       30.29F
MORIARTY ARPT  FAIR      81  51  34 CALM      30.33F
CLINES CORNERS FAIR      76  53  44 SE9       30.39F
BELEN          FAIR      86  49  27 CALM      30.24F
SOCORRO        FAIR      89  46  22 NE5       30.21F

$$
NMZ524>526-539-540-222200-
SOUTHCENTRAL MOUNTAINS

CITY           SKY/WX    TMP DP  RH WIND       PRES   REMARKS
RUIDOSO        FAIR      75  50  41 E13       30.39F

$$
NMZ527>531-222200-
NORTHEAST HIGHLANDS/NORTHEAST PLAINS

CITY           SKY/WX    TMP DP  RH WIND       PRES   REMARKS
LAS VEGAS      PTSUNNY   70  57  63 NE20G25   30.41F
RATON          CLOUDY    61  59  93 SW8       30.42R
CLAYTON        PTSUNNY   67  63  87 NE12      30.32F

$$
NMZ532>537-222200-
EASTCENTRAL PLAINS

CITY           SKY/WX    TMP DP  RH WIND       PRES   REMARKS
SANTA ROSA     FAIR      79  61  54 N14       30.26F
TUCUMCARI      CLOUDY    74  66  76 NE15      30.23S
CANNON AFB     CLOUDY    73  66  77 N6G24     30.27R THUNDER
CLOVIS AIRPORT TSTM      70  62  76 N17       30.22F

$$
NMZ028-029-538-222200-
SOUTHEAST PLAINS

CITY           SKY/WX    TMP DP  RH WIND       PRES   REMARKS
ROSWELL        FAIR      90  62  39 VRB7      30.14F
ARTESIA        FAIR      90  61  37 VRB3      30.13F
CARLSBAD       FAIR      90  67  46 CALM      30.10F
HOBBS          PTSUNNY   91  59  33 VRB3      30.13F


$$



USA.gov is the U.S. government's official web portal to all federal, state and local government web resources and services.